[[{"header":{"parameterUnit":"m.s-1","parameterCategory":1,"la1":30.2991,"la2":30.254,"lo1":-89.0895,"lo2":-89.0444,"dy":0.0017,"dx":0.0017,"nx":28,"ny":28,"refTime":"2023-07-31T03:00:00:Z","depth":0,"parameterNumber":2,"parameterNumberName":"U-component_of_WINDS"},"data":[0,0,0,0,0,0,0,0,0,0,0,0,0,0,0,0,0,0,0,0,0,0,0,0,0,0,0,0,0,0,0,0,0,0,0,0,0,0,0,0,0,0,0,0,0,0,0,0,0,0,0,0,0,0,0,0,0,0,-2.2697,-2.2696,0,-2.258,-2.2579,-2.2578,-2.2434,-2.2432,-2.2429,-2.2427,-2.2308,-2.2307,-2.2306,0,0,0,0,0,0,0,0,0,0,0,0,0,-2.2799,-2.2798,-2.2698,-2.2696,-2.2695,-2.258,-2.2579,-2.2577,-2.2434,-2.2431,-2.2429,-2.2426,-2.2308,-2.2307,-2.2306,0,0,0,0,0,0,0,0,0,0,0,0,0,-2.2726,-2.2798,-2.2698,-2.2609,-2.26,-2.2581,-2.2579,-2.2577,-2.2435,-2.2431,-2.2428,-2.2425,-2.2309,-2.2307,-2.2306,-2.2364,0,0,-2.2301,-2.23,0,0,0,0,0,0,0,0,-2.2731,-2.2723,-2.2624,-2.2615,-2.2605,-2.2518,-2.2571,-2.2505,-2.2436,-2.2498,-2.2427,-2.2423,-2.2381,-2.2373,-2.2358,-2.2358,-2.2353,-2.2301,-2.23,-2.2299,-2.2299,0,0,0,0,0,0,0,-2.2736,-2.2727,-2.2651,-2.2623,-2.2611,-2.2576,-2.2562,-2.2558,-2.246,-2.2492,-2.2481,-2.2469,-2.2375,-2.236,-2.2355,-2.2351,-2.2301,-2.2299,-2.2298,-2.2298,-2.2395,-2.2398,0,0,0,0,0,0,-2.2754,-2.2732,-2.2655,-2.2647,-2.2661,-2.2577,-2.2561,-2.255,-2.2459,-2.2442,-2.2472,-2.2463,-2.2365,-2.2357,-2.235,-2.2413,-2.2299,-2.2298,-2.2297,-2.2391,-2.2396,-2.2399,0,0,0,0,0,0,-2.2757,-2.2748,-2.2659,-2.2687,-2.2673,-2.2579,-2.2567,-2.2549,-2.2534,-2.2444,-2.2426,-2.2475,-2.2362,-2.2352,-2.2362,-2.2407,-2.2297,-2.2295,-2.2387,-2.2393,-2.2398,-2.254,0,0,0,0,0,0,-2.276,-2.275,-2.2771,-2.2688,-2.2672,-2.2673,-2.257,-2.2549,-2.2532,-2.2518,-2.2442,-2.2427,-2.2358,-2.2365,-2.236,-2.2403,-2.2294,-2.2383,-2.239,-2.2396,-2.2531,-2.2549,-2.2565,0,0,0,0,0,-2.2764,-2.2815,-2.2772,-2.2764,-2.2695,-2.2676,-2.2666,-2.2587,-2.2536,-2.2556,-2.2499,-2.2429,-2.2403,-2.2367,-2.2361,-2.2403,-2.2379,-2.2388,-2.2395,-2.2523,-2.2546,-2.2565,0,0,0,0,0,0,-2.2905,-2.2803,-2.2754,-2.278,-2.2738,-2.2652,-2.2675,-2.2613,-2.2585,-2.2574,-2.2476,-2.246,-2.2482,-2.2443,-2.2405,-2.2456,-2.2381,-2.2388,-2.248,-2.2501,-2.2518,-2.2527,-2.2293,0,0,0,0,0,-2.2939,-2.2931,-2.2842,-2.2873,-2.2855,-2.2769,-2.2757,-2.27,-2.2652,-2.2634,-2.2577,-2.2534,-2.2516,-2.2506,-2.2485,-2.2525,-2.2507,-2.2551,-2.2568,-2.2583,-2.259,-2.261,-2.2629,-2.2426,-2.2425,-2.2425,0,0,-2.3009,-2.2952,-2.2953,-2.29,-2.2861,-2.2856,-2.2755,-2.2753,-2.2749,-2.2633,-2.2639,-2.2597,-2.2542,-2.2568,-2.2576,-2.2537,-2.2643,-2.2593,-2.2606,-2.2605,-2.262,-2.264,-2.2657,-2.2431,-2.243,-2.2429,0,0,-2.3134,-2.309,-2.3112,-2.3075,-2.3017,-2.296,-2.2966,-2.2889,-2.2856,-2.2861,-2.2775,-2.2769,-2.2739,-2.2705,-2.2683,-2.2799,-2.2734,-2.2794,-2.2885,-2.2906,-2.2922,-2.2936,-2.2978,-2.2994,-2.2802,-2.2802,-2.2803,0,-2.3229,-2.3217,-2.3131,-2.3135,-2.3116,-2.3011,-2.3034,-2.3002,-2.294,-2.293,-2.2886,-2.2848,-2.2804,-2.2821,-2.285,-2.2835,-2.284,-2.2802,-2.2926,-2.2939,-2.2951,-2.299,-2.3006,-2.281,-2.2809,-2.2808,-2.2808,0,-2.3337,-2.333,-2.3355,-2.3299,-2.3281,-2.3295,-2.3212,-2.3205,-2.315,-2.3098,-2.3105,-2.3049,-2.3015,-2.3015,-2.296,-2.3025,-2.3002,-2.2944,-2.2867,-2.298,-2.3015,-2.3029,-2.2821,-2.2819,-2.2816,-2.2814,0,0,-2.3546,-2.3443,-2.3454,-2.3428,-2.3357,-2.3351,-2.3361,-2.3328,-2.3324,-2.3286,-2.3292,-2.3271,-2.3218,-2.3194,-2.3135,-2.3153,-2.325,-2.3092,-2.3089,-2.3124,-2.3319,-2.3364,-2.3383,-2.3207,-2.3209,-2.3211,-2.3324,0,-2.3659,-2.3669,-2.3593,-2.3624,-2.3618,-2.352,-2.3528,-2.3487,-2.3439,-2.3428,-2.3375,-2.3362,-2.3291,-2.3277,-2.329,-2.3235,-2.3288,-2.3226,-2.3213,-2.3213,-2.323,-2.3401,-2.3448,-2.3558,-2.3337,-2.334,-2.3341,0,-2.3791,-2.3761,-2.3792,-2.3721,-2.3716,-2.3725,-2.369,-2.368,-2.3631,-2.3595,-2.3571,-2.3503,-2.3509,-2.3436,-2.3443,-2.3403,-2.3393,-2.3366,-2.3368,-2.3364,-2.3285,-2.3403,-2.359,-2.3607,-2.3362,-2.336,-2.3359,0,-2.3942,-2.3909,-2.3923,-2.3904,-2.3822,-2.3831,-2.3798,-2.3746,-2.3732,-2.3701,-2.3691,-2.3662,-2.3647,-2.3626,-2.3554,-2.3507,-2.3571,-2.3491,-2.3542,-2.3544,-2.356,-2.356,-2.3749,-2.3553,-2.3553,-2.3552,-2.3552,0,-2.4076,-2.4099,-2.399,-2.3999,-2.4023,-2.3936,-2.3962,-2.3919,-2.3874,-2.3874,-2.3787,-2.3789,-2.3693,-2.3685,-2.3628,-2.3644,-2.3637,-2.3609,-2.3594,-2.3617,-2.3621,-2.361,-2.3601,-2.3557,-2.3556,-2.3555,-2.3554,0,-2.4248,-2.4176,-2.4186,-2.4108,-2.409,-2.4111,-2.4044,-2.405,-2.3998,-2.3999,-2.3994,-2.3912,-2.3898,-2.3824,-2.3792,-2.3754,-2.379,-2.3759,-2.3807,-2.3797,-2.3853,-2.3849,-2.4042,-2.4064,-2.3854,-2.3856,-2.3858,0,-2.4339,-2.4354,-2.4279,-2.4273,-2.4243,-2.4234,-2.422,-2.4136,-2.4124,-2.4072,-2.4085,-2.4064,-2.4042,-2.4025,-2.3963,-2.3939,-2.3907,-2.3976,-2.3903,-2.3927,-2.3909,-2.391,-2.3912,-2.3992,-2.3995,-2.3997,-2.3999,0,-2.4508,-2.4472,-2.4454,-2.4425,-2.441,-2.4383,-2.4351,-2.4351,-2.4258,-2.425,-2.4234,-2.4218,-2.4187,-2.4167,-2.4133,-2.4099,-2.4035,-2.4023,-2.4034,-2.4058,-2.4085,-2.4072,-2.3851,-2.4019,-2.4017,-2.4015,-2.4014,-2.4013,-2.4642,-2.4652,-2.4601,-2.4585,-2.4552,-2.4525,-2.4527,-2.4476,-2.4461,-2.4429,-2.4381,-2.4373,-2.4326,-2.4273,-2.4245,-2.4238,-2.4201,-2.4216,-2.422,-2.4225,-2.4238,-2.4087,-2.4232,-2.4231,-2.423,-2.423,-2.4229,0,-2.4807,-2.477,-2.4756,-2.4714,-2.4702,-2.4643,-2.4604,-2.4599,-2.4592,-2.4554,-2.4535,-2.4519,-2.4501,-2.4439,-2.4414,-2.4421,-2.4391,-2.4417,-2.4416,-2.441,-2.4272,-2.4266,-2.4442,-2.4442,-2.4442,-2.4442,-2.4442,-2.4442,-2.4892,-2.4906,-2.4865,-2.4863,-2.4825,-2.4817,-2.4801,-2.4775,-2.4745,-2.473,-2.4715,-2.4674,-2.4627,-2.4599,-2.458,-2.4562,-2.4558,-2.4595,-2.4568,-2.444,-2.4419,-2.44,-2.4394,-2.4594,-2.4594,-2.4706,-2.4707,-2.4708]},{"header":{"parameterUnit":"m.s-1","parameterCategory":1,"la1":30.2991,"la2":30.254,"lo1":-89.0895,"lo2":-89.0444,"dy":0.0017,"dx":0.0017,"nx":28,"ny":28,"refTime":"2023-07-31T03:00:00:Z","depth":0,"parameterNumber":3,"parameterNumberName":"V-component_of_WINDS"},"data":[0,0,0,0,0,0,0,0,0,0,0,0,0,0,0,0,0,0,0,0,0,0,0,0,0,0,0,0,0,0,0,0,0,0,0,0,0,0,0,0,0,0,0,0,0,0,0,0,0,0,0,0,0,0,0,0,0,0,1.1277,1.1277,0,1.1241,1.1241,1.124,1.1233,1.1234,1.1234,1.1234,1.1193,1.1191,1.119,0,0,0,0,0,0,0,0,0,0,0,0,0,1.1337,1.1336,1.1277,1.1277,1.1276,1.1241,1.1241,1.124,1.1233,1.1234,1.1234,1.1234,1.1193,1.1191,1.119,0,0,0,0,0,0,0,0,0,0,0,0,0,1.1307,1.1335,1.1277,1.1269,1.1268,1.1241,1.124,1.124,1.1233,1.1234,1.1234,1.1234,1.1194,1.1192,1.119,1.1168,0,0,1.1183,1.1182,0,0,0,0,0,0,0,0,1.1308,1.1304,1.127,1.1269,1.1268,1.1242,1.1246,1.1215,1.1233,1.1246,1.1234,1.1235,1.1208,1.1205,1.1197,1.1166,1.1164,1.1183,1.1182,1.1181,1.118,0,0,0,0,0,0,0,1.1311,1.1306,1.1263,1.127,1.1268,1.1266,1.1262,1.124,1.1225,1.1245,1.1244,1.124,1.1208,1.1199,1.1196,1.1163,1.1183,1.1181,1.118,1.1179,1.1111,1.1111,0,0,0,0,0,0,1.1315,1.1308,1.1264,1.1262,1.129,1.1264,1.126,1.125,1.1225,1.1222,1.124,1.124,1.1203,1.1199,1.1195,1.1167,1.1181,1.1179,1.1178,1.1112,1.1111,1.1111,0,0,0,0,0,0,1.1316,1.1311,1.1265,1.1285,1.1279,1.1263,1.1251,1.1249,1.124,1.1222,1.1218,1.1234,1.1203,1.1198,1.1175,1.1165,1.1178,1.1176,1.1112,1.1112,1.1111,1.1111,0,0,0,0,0,0,1.1318,1.1311,1.1304,1.1285,1.1278,1.1247,1.1251,1.1248,1.1237,1.1237,1.1215,1.1212,1.1203,1.1178,1.1173,1.1163,1.1174,1.1113,1.1112,1.1111,1.1112,1.111,1.1109,0,0,0,0,0,1.132,1.1304,1.1303,1.1298,1.1268,1.1246,1.1242,1.1233,1.1237,1.1228,1.1216,1.1213,1.1168,1.1175,1.1169,1.1159,1.1114,1.1112,1.1111,1.1112,1.1111,1.1109,0,0,0,0,0,0,1.1321,1.1302,1.13,1.1278,1.1264,1.1245,1.1234,1.1232,1.1215,1.1215,1.1203,1.1198,1.1176,1.1165,1.1174,1.1136,1.1141,1.1138,1.1144,1.1142,1.1141,1.1143,1.1173,0,0,0,0,0,1.1319,1.1304,1.1288,1.127,1.1263,1.125,1.124,1.1235,1.1219,1.1213,1.1199,1.1183,1.1165,1.1153,1.1135,1.1111,1.1105,1.1101,1.1099,1.1098,1.1096,1.1081,1.1079,1.1106,1.1106,1.1107,0,0,1.1314,1.1302,1.1293,1.127,1.1258,1.1242,1.1245,1.1228,1.1215,1.1209,1.1187,1.1177,1.1158,1.1134,1.1122,1.1124,1.1087,1.1097,1.1096,1.1094,1.108,1.1077,1.1075,1.1106,1.1106,1.1106,0,0,1.1296,1.1286,1.127,1.1259,1.1242,1.1234,1.123,1.1212,1.1205,1.1183,1.1178,1.1162,1.1132,1.1119,1.1108,1.1087,1.1082,1.1081,1.1073,1.106,1.1057,1.1055,1.1046,1.1044,1.1079,1.1079,1.1079,0,1.1292,1.1269,1.1262,1.1245,1.1234,1.1231,1.1213,1.1202,1.118,1.1172,1.1175,1.1137,1.1124,1.1097,1.1092,1.1084,1.1078,1.1083,1.1059,1.1056,1.1054,1.1046,1.1043,1.1079,1.1079,1.1079,1.1079,0,1.1263,1.1247,1.1236,1.1216,1.1205,1.1188,1.1177,1.1166,1.1162,1.1153,1.113,1.1115,1.1094,1.1087,1.1082,1.1059,1.1061,1.1061,1.1065,1.1052,1.1043,1.104,1.1079,1.1079,1.1079,1.1079,0,0,1.1243,1.1221,1.1217,1.1208,1.119,1.1176,1.1159,1.1141,1.1131,1.1116,1.11,1.1076,1.1076,1.1064,1.1058,1.1046,1.1029,1.1048,1.1047,1.1043,1.1001,1.0999,1.0996,1.1027,1.1026,1.1026,1.1002,0,1.1223,1.1193,1.1187,1.116,1.1145,1.1142,1.1127,1.1113,1.1105,1.1089,1.1079,1.1061,1.1064,1.1057,1.1045,1.1033,1.102,1.1035,1.101,1.1009,1.1013,1.0992,1.099,1.0968,1.0999,1.0998,1.0998,0,1.1194,1.118,1.1153,1.1137,1.113,1.1117,1.1099,1.1085,1.107,1.1064,1.1051,1.1046,1.1027,1.1034,1.1007,1.1017,1.1007,1.1,1.0998,1.0994,1.1002,1.0985,1.0961,1.0957,1.0993,1.0993,1.0994,0,1.118,1.1155,1.1135,1.1128,1.1109,1.11,1.1091,1.1076,1.1065,1.105,1.1042,1.1024,1.1014,1.1,1.0989,1.0996,1.0963,1.0969,1.0956,1.0956,1.0947,1.0948,1.092,1.0944,1.0944,1.0944,1.0944,0,1.1157,1.114,1.1129,1.1117,1.1097,1.109,1.1071,1.1062,1.1049,1.1034,1.103,1.1016,1.1005,1.0989,1.0981,1.0959,1.0954,1.0948,1.0946,1.0947,1.0948,1.0939,1.0939,1.0943,1.0943,1.0943,1.0944,0,1.1138,1.113,1.1108,1.1093,1.1089,1.1075,1.1061,1.1048,1.1041,1.1022,1.1017,1.1004,1.0985,1.0974,1.095,1.0945,1.0919,1.0919,1.0925,1.0924,1.0911,1.0912,1.0875,1.0869,1.0899,1.0898,1.0898,0,1.1122,1.1109,1.1093,1.1084,1.1075,1.106,1.1049,1.1042,1.1031,1.1013,1.1002,1.0983,1.0968,1.0937,1.0925,1.0906,1.0904,1.0892,1.09,1.0903,1.0901,1.0902,1.09,1.089,1.089,1.0889,1.0889,0,1.1095,1.1092,1.1078,1.1062,1.105,1.1037,1.1024,1.1016,1.1007,1.0994,1.0976,1.0964,1.094,1.0921,1.0901,1.0891,1.0888,1.0887,1.0883,1.0883,1.0887,1.0883,1.0919,1.0887,1.0887,1.0888,1.0888,1.0888,1.1076,1.1064,1.1051,1.1035,1.1025,1.1013,1.1001,1.0992,1.0977,1.0958,1.0955,1.0934,1.0919,1.0893,1.0883,1.0866,1.0868,1.0862,1.086,1.0859,1.0857,1.0892,1.0863,1.0863,1.0863,1.0863,1.0863,0,1.1047,1.1039,1.1025,1.1007,1.0995,1.0996,1.0982,1.097,1.0953,1.094,1.0926,1.0904,1.0886,1.0873,1.0854,1.0843,1.0841,1.0838,1.0837,1.0835,1.0858,1.0862,1.084,1.084,1.084,1.084,1.084,1.084,1.103,1.101,1.1006,1.0981,1.0973,1.0954,1.0946,1.0935,1.0924,1.0901,1.0886,1.0879,1.0865,1.0846,1.0828,1.0825,1.0817,1.0814,1.081,1.0831,1.0833,1.0836,1.084,1.0813,1.0813,1.0789,1.0789,1.0788]}]]